Wind_Speed
16 13 14 14 15 19 21 22 21 21 21 20 19 19 17 16 15 14 13 11 10 10 10 11 11 11 11 11 11 11 10 10 10 10 9 9 9 9 10 10 10 10
17 15 15 17 18 20 22 22 22 22 22 20 20 19 18 17 15 13 11 10 9 10 10 10 10 11 11 12 12 11 11 10 9 9 8 9 9 8 9 9 9 9
19 16 17 20 20 21 24 24 23 23 22 21 20 20 19 17 15 13 11 9 9 8 8 9 9 10 11 12 13 12 12 11 10 9 8 8 7 7 7 8 7 6
19 18 20 21 22 23 26 26 25 24 23 22 22 21 19 16 14 12 10 9 8 7 8 9 9 9 11 12 13 13 12 11 10 9 8 8 7 6 7 7 6 6
21 22 23 23 23 26 27 27 27 26 24 23 23 20 17 15 13 11 9 8 8 7 8 8 8 9 10 10 12 13 12 12 11 10 9 8 7 7 7 7 7 6
21 23 22 22 24 25 26 26 27 26 24 23 22 19 16 14 12 10 9 8 7 7 7 7 7 8 9 10 12 12 12 12 12 10 9 9 8 7 7 7 7 7
20 22 21 22 24 23 25 27 27 26 24 22 20 18 15 13 11 10 9 8 7 7 7 7 6 7 9 10 11 11 12 12 11 10 9 9 8 7 7 7 7 7
20 22 23 24 25 25 27 28 28 26 24 22 20 17 15 13 11 10 9 8 8 7 7 6 6 8 8 9 10 11 12 11 10 9 9 9 9 8 8 8 7 7
22 24 25 26 27 27 29 30 30 28 24 22 20 18 16 13 11 10 9 8 8 8 7 6 7 7 7 8 11 11 10 10 10 10 10 9 8 8 7 7 6 7
22 25 26 28 28 28 30 30 30 28 25 23 22 19 16 13 11 10 10 9 9 8 7 7 7 7 7 10 10 9 10 11 10 10 10 9 7 7 7 6 6 6
22 24 27 29 29 29 29 29 29 29 26 25 22 19 16 13 12 11 10 10 10 9 8 7 7 7 8 9 9 9 11 12 10 10 9 8 7 7 7 6 6 7
24 26 28 30 29 29 28 27 29 29 27 25 23 19 16 14 13 12 11 10 10 9 8 8 8 8 9 9 9 10 12 11 9 10 9 8 7 7 7 8 8 7
26 28 30 31 30 29 28 28 30 30 28 26 23 19 17 15 13 11 10 10 9 9 9 8 8 9 9 10 10 10 10 10 10 11 11 10 8 8 8 9 8 8
29 28 30 32 30 29 29 30 31 30 28 27 23 20 19 16 13 11 10 9 8 8 8 8 8 8 9 9 9 9 9 11 11 11 11 10 10 9 9 8 8 7
30 29 30 31 30 29 29 29 30 30 29 28 24 22 20 17 15 14 12 9 8 8 8 8 8 8 8 9 9 9 9 11 11 11 10 10 10 9 9 8 8 8
28 29 31 30 29 31 30 28 29 31 31 29 26 24 23 20 19 17 14 11 9 10 10 8 8 8 9 9 9 9 10 10 11 11 10 9 9 9 9 9 9 8
27 28 31 30 30 33 33 30 29 31 32 31 29 27 25 22 20 19 16 12 12 13 11 10 9 9 10 9 10 10 10 10 11 11 12 11 10 9 10 10 10 10
24 25 29 30 30 32 34 33 31 31 32 32 30 27 24 22 21 19 17 14 14 14 13 12 11 11 11 11 12 12 11 11 12 12 12 12 12 11 11 11 11 11
21 24 27 28 28 31 35 34 32 32 33 32 29 26 23 21 21 19 18 17 16 16 15 15 14 13 13 14 14 14 14 14 14 13 13 12 11 11 11 11 11 11
22 24 26 27 27 29 33 34 33 34 34 33 31 27 24 22 20 20 20 19 18 18 17 17 16 16 16 16 16 17 17 17 17 16 14 12 11 10 11 12 13 13
23 23 24 25 26 27 29 32 33 33 33 34 33 30 27 25 23 22 22 21 20 20 19 18 17 17 18 18 19 19 19 19 19 18 17 16 14 14 13 12 13 14
21 22 23 24 25 26 28 31 31 29 29 31 32 31 29 27 25 24 24 22 21 21 20 19 17 17 18 19 20 21 21 21 22 22 21 20 18 17 17 17 16 16
17 19 22 24 25 24 25 27 28 28 28 29 30 29 28 28 27 26 25 24 23 22 21 21 21 20 19 20 22 23 23 24 25 26 25 23 20 18 19 20 22 22
18 18 20 21 23 24 24 22 22 24 27 29 31 30 30 31 31 30 29 28 27 27 26 26 26 25 23 22 23 24 25 26 27 28 28 27 25 24 24 25 26 26
19 18 18 18 20 22 22 20 17 17 18 22 26 28 29 29 29 29 29 29 29 29 29 28 27 27 25 24 25 26 26 27 28 29 30 31 31 31 30 27 23 22
15 16 17 17 16 16 17 17 15 13 12 13 14 17 18 18 18 18 19 20 21 22 22 22 21 22 22 22 24 26 27 28 30 31 30 29 28 27 24 21 19 20
Wind_Direction
244 235 219 212 203 194 193 197 200 200 197 197 198 199 197 192 188 188 187 187 192 196 196 200 204 206 210 213 213 214 210 207 209 211 210 213 217 219 222 218 210 212
240 231 214 206 203 198 196 199 202 200 196 196 197 195 191 188 182 182 184 185 190 195 199 205 210 209 212 216 215 217 216 210 208 210 210 214 218 220 222 222 214 211
233 227 211 204 203 201 199 199 199 197 195 196 194 189 186 184 179 181 186 186 193 200 201 209 215 211 212 217 217 219 219 215 213 211 210 216 217 220 227 226 217 212
225 219 206 201 200 200 200 200 198 196 194 195 192 186 184 182 180 183 185 185 196 203 198 206 214 213 215 216 215 218 218 214 215 215 217 221 221 221 225 217 204 201
217 213 202 196 197 199 200 200 200 197 195 194 189 184 183 182 181 182 181 186 196 201 203 209 211 214 219 215 210 215 216 211 212 216 219 221 219 215 213 203 193 189
214 211 201 195 198 200 199 200 202 198 194 191 186 183 182 181 180 177 178 188 195 199 208 214 213 213 218 213 207 211 214 211 210 211 213 216 215 209 203 197 190 183
216 210 201 197 199 200 199 201 201 197 192 188 185 183 181 181 179 174 178 189 193 198 210 216 212 208 212 211 204 205 210 211 208 206 205 206 206 203 202 201 193 182
216 212 205 200 200 202 202 202 201 196 191 188 185 183 181 182 181 177 180 187 188 197 210 208 200 202 209 205 199 202 209 207 203 201 197 193 191 191 197 198 186 174
210 212 210 203 201 203 203 202 201 195 189 188 187 185 187 188 185 180 180 183 187 196 203 197 196 202 200 195 198 201 202 199 194 191 189 184 182 182 184 183 170 168
209 214 214 205 200 202 202 202 200 192 188 188 187 187 192 193 187 182 181 186 190 192 193 194 197 194 185 193 201 194 190 197 193 186 184 178 173 176 175 169 161 166
214 216 216 206 198 200 202 199 196 190 187 188 189 191 195 194 188 182 179 184 191 192 189 193 196 191 189 198 198 184 189 199 193 182 181 172 164 170 168 160 158 162
213 213 213 204 198 200 201 195 192 191 189 189 191 193 193 193 190 182 177 181 188 190 187 191 196 193 194 200 193 186 190 195 190 182 178 171 167 167 158 152 155 159
205 205 207 201 197 199 198 193 192 193 191 190 193 194 192 191 188 180 179 182 186 189 189 193 199 196 198 201 196 191 184 179 182 184 180 177 174 166 154 149 153 157
201 200 202 198 195 197 196 195 196 195 192 192 194 196 194 191 185 181 185 187 186 193 195 195 198 199 202 203 199 193 180 170 178 187 186 184 180 171 161 155 156 159
200 200 202 196 193 196 197 197 198 196 194 194 195 198 198 195 191 195 205 206 198 205 207 197 195 198 203 204 200 195 185 174 176 183 188 188 182 174 168 163 162 161
198 200 202 195 190 194 196 198 199 196 195 196 196 199 201 199 198 208 224 224 207 208 210 199 193 198 202 203 200 198 195 186 181 181 183 185 184 176 167 165 166 165
198 199 201 198 196 196 195 198 200 198 197 197 198 201 203 203 206 218 230 226 207 206 209 202 197 199 202 204 204 204 203 198 195 193 189 188 191 188 179 175 177 179
195 199 199 198 201 200 197 199 202 201 199 199 199 202 205 209 214 221 226 221 211 208 207 203 202 203 205 206 206 208 209 207 206 207 205 200 199 201 200 197 199 203
191 199 198 197 200 201 198 200 204 204 203 201 200 202 208 213 218 222 222 219 215 212 208 206 207 209 210 209 208 208 209 209 209 212 216 214 211 216 223 223 223 226
188 194 200 200 200 201 200 202 206 208 208 206 203 203 207 212 219 225 225 223 222 219 214 210 209 210 213 212 211 211 210 210 212 214 216 216 216 226 235 239 241 242
190 195 201 199 198 202 205 206 209 211 213 213 211 209 211 216 221 227 228 226 225 225 221 217 213 214 217 217 215 214 212 210 213 215 215 212 214 220 226 234 242 248
190 195 197 196 199 207 209 206 206 206 209 214 216 216 219 222 225 230 232 230 228 228 227 222 217 216 220 222 221 221 220 218 219 220 218 217 220 226 231 234 238 243
185 193 195 198 204 208 209 206 203 202 206 211 213 217 221 224 228 232 234 234 233 232 231 229 227 228 228 227 227 227 227 228 231 232 233 234 236 239 245 249 248 246
183 194 198 203 208 207 207 210 207 205 210 214 215 218 222 226 230 234 236 238 239 239 241 241 242 242 239 234 231 230 231 235 239 243 247 249 249 252 263 267 258 248
185 192 196 205 212 208 205 209 208 204 209 216 218 221 224 228 233 236 238 240 241 241 243 245 244 244 241 236 233 233 234 238 242 247 252 255 256 260 267 269 257 246
178 183 192 200 206 204 201 204 204 198 201 208 212 216 222 225 224 222 224 228 230 232 234 236 236 236 235 234 233 234 237 240 244 248 252 255 258 260 262 258 249 246
Height
3129 3129 3130 3131 3131 3131 3132 3133 3134 3135 3136 3137 3139 3140 3141 3142 3144 3145 3146 3147 3148 3149 3150 3151 3152 3153 3154 3155 3156 3157 3158 3159 3159 3160 3161 3162 3162 3163 3163 3164 3166 3166
3126 3127 3128 3129 3130 3130 3131 3132 3134 3135 3136 3137 3139 3140 3141 3142 3144 3145 3146 3147 3148 3149 3150 3150 3151 3152 3153 3154 3155 3156 3157 3158 3158 3159 3160 3161 3161 3162 3162 3163 3164 3165
3123 3124 3125 3127 3128 3129 3130 3131 3132 3134 3136 3137 3139 3140 3141 3142 3144 3144 3145 3146 3147 3148 3149 3150 3150 3152 3152 3153 3154 3155 3156 3156 3157 3158 3159 3160 3161 3161 3161 3162 3163 3163
3121 3122 3123 3125 3126 3127 3129 3130 3131 3133 3135 3136 3138 3139 3140 3142 3143 3144 3145 3146 3146 3147 3148 3149 3150 3150 3151 3152 3153 3154 3154 3155 3156 3157 3158 3158 3159 3160 3160 3160 3161 3162
3120 3120 3120 3122 3123 3125 3126 3129 3131 3132 3134 3136 3137 3139 3140 3141 3143 3143 3144 3145 3146 3147 3148 3148 3149 3149 3150 3151 3152 3152 3153 3154 3155 3155 3156 3157 3158 3158 3158 3159 3160 3160
3119 3119 3120 3120 3121 3123 3124 3127 3129 3131 3134 3135 3137 3138 3139 3141 3142 3143 3144 3144 3145 3146 3147 3147 3148 3149 3149 3150 3151 3151 3152 3153 3154 3154 3155 3156 3156 3156 3157 3157 3158 3159
3118 3119 3120 3120 3120 3122 3123 3126 3128 3131 3133 3135 3137 3138 3139 3140 3141 3142 3143 3144 3144 3145 3146 3147 3148 3148 3149 3149 3150 3151 3151 3152 3153 3154 3154 3155 3155 3156 3156 3156 3157 3157
3116 3117 3118 3118 3119 3121 3122 3125 3127 3130 3133 3135 3136 3138 3138 3140 3141 3142 3142 3143 3144 3145 3145 3146 3147 3147 3148 3149 3149 3150 3150 3151 3152 3153 3153 3154 3155 3155 3155 3156 3156 3157
3112 3115 3116 3116 3118 3120 3121 3123 3125 3129 3132 3134 3136 3137 3138 3139 3140 3141 3142 3142 3143 3144 3145 3146 3146 3146 3147 3148 3148 3149 3150 3150 3151 3151 3152 3153 3154 3154 3155 3155 3156 3156
3110 3113 3114 3114 3115 3117 3119 3122 3125 3129 3132 3133 3135 3136 3138 3139 3139 3140 3141 3142 3143 3144 3144 3145 3145 3146 3146 3147 3147 3148 3149 3149 3150 3150 3151 3152 3153 3154 3154 3155 3155 3155
3109 3111 3112 3112 3113 3115 3119 3122 3125 3128 3130 3132 3134 3135 3137 3138 3138 3139 3140 3141 3142 3143 3144 3144 3144 3145 3146 3146 3147 3148 3148 3148 3149 3150 3150 3152 3152 3153 3154 3154 3155 3155
3107 3109 3110 3111 3113 3115 3118 3121 3124 3127 3129 3131 3133 3134 3136 3137 3138 3139 3139 3140 3141 3142 3143 3144 3144 3145 3145 3146 3146 3147 3147 3148 3148 3149 3150 3151 3151 3152 3153 3154 3154 3155
3104 3106 3108 3110 3112 3114 3117 3120 3123 3125 3128 3130 3132 3133 3135 3136 3137 3138 3138 3139 3140 3142 3143 3143 3144 3144 3145 3145 3146 3146 3147 3148 3148 3148 3149 3150 3150 3151 3152 3153 3153 3154
3100 3103 3106 3108 3110 3113 3116 3119 3121 3124 3127 3129 3130 3132 3133 3135 3136 3136 3137 3138 3140 3142 3142 3143 3143 3144 3145 3145 3146 3146 3147 3147 3148 3148 3148 3149 3149 3150 3151 3152 3153 3154
3099 3102 3104 3106 3108 3111 3114 3117 3120 3123 3125 3127 3129 3130 3131 3133 3134 3134 3136 3138 3140 3142 3142 3142 3143 3144 3144 3145 3145 3146 3147 3147 3147 3147 3148 3148 3149 3149 3150 3151 3153 3154
3097 3100 3103 3105 3106 3109 3112 3115 3118 3121 3123 3125 3126 3127 3129 3130 3131 3133 3135 3137 3139 3140 3141 3142 3142 3143 3144 3144 3145 3146 3146 3147 3147 3147 3147 3148 3148 3149 3150 3151 3152 3153
3094 3098 3101 3103 3105 3108 3110 3113 3115 3118 3120 3121 3123 3124 3127 3129 3130 3132 3134 3136 3137 3138 3140 3141 3141 3142 3143 3144 3144 3145 3146 3146 3147 3147 3147 3147 3147 3148 3148 3149 3150 3151
3093 3096 3099 3101 3104 3106 3109 3111 3113 3115 3117 3118 3121 3123 3126 3128 3129 3131 3133 3135 3136 3137 3138 3139 3140 3141 3142 3143 3143 3144 3145 3146 3146 3146 3146 3146 3146 3146 3147 3148 3149 3149
3093 3096 3098 3100 3102 3104 3107 3110 3112 3113 3115 3117 3120 3123 3125 3126 3128 3129 3131 3133 3134 3135 3137 3137 3138 3139 3140 3141 3142 3143 3144 3144 3144 3145 3145 3145 3146 3146 3147 3148 3148 3149
3093 3095 3097 3099 3101 3103 3105 3108 3110 3112 3114 3116 3118 3120 3122 3124 3126 3128 3129 3131 3132 3134 3135 3136 3137 3138 3139 3140 3140 3141 3142 3142 3142 3142 3143 3144 3145 3146 3146 3147 3147 3148
3092 3094 3096 3099 3101 3102 3104 3106 3109 3111 3113 3115 3116 3118 3120 3122 3124 3126 3127 3129 3130 3132 3133 3134 3135 3136 3137 3138 3138 3139 3140 3140 3140 3140 3141 3143 3143 3144 3144 3145 3145 3146
3091 3093 3095 3097 3100 3101 3102 3104 3107 3109 3111 3113 3115 3117 3118 3120 3122 3124 3126 3127 3128 3130 3131 3132 3133 3134 3135 3136 3137 3137 3138 3139 3139 3139 3139 3140 3142 3142 3142 3143 3143 3144
3090 3093 3095 3096 3098 3100 3101 3102 3104 3108 3109 3111 3113 3115 3117 3119 3120 3122 3124 3125 3126 3127 3128 3130 3131 3132 3133 3135 3135 3136 3137 3137 3138 3138 3138 3139 3140 3140 3141 3141 3142 3142
3090 3092 3093 3095 3096 3098 3100 3101 3103 3106 3107 3109 3111 3113 3115 3116 3118 3119 3121 3123 3124 3125 3126 3127 3128 3129 3131 3132 3133 3134 3134 3135 3135 3136 3136 3137 3137 3137 3138 3138 3139 3139
3091 3092 3093 3094 3095 3096 3098 3099 3101 3104 3106 3107 3109 3111 3113 3114 3116 3117 3118 3119 3120 3121 3122 3123 3124 3126 3127 3129 3130 3131 3132 3132 3132 3133 3133 3134 3134 3134 3134 3135 3135 3136
3090 3091 3093 3094 3094 3096 3097 3099 3101 3103 3105 3106 3108 3110 3111 3112 3113 3114 3115 3115 3116 3117 3118 3120 3121 3122 3124 3125 3127 3128 3129 3129 3129 3129 3130 3130 3131 3131 3131 3132 3132 3133